Home > Weather > Bucharest > Past weeks

Flag for Romania Weather for the Past 2 Weeks in Bucharest, Romania

Now
54 °F

Sprinkles. Broken clouds.


Feels Like: 49 °F
Forecast: 48 / 54 °F
Wind: 16 mph from Northeast

Location: Bucharest / Imh

Current Time: May 3, 2016 at 1:54:11 PM

Latest Report: May 3, 2016 at 1:00 PM


Visibility: 4 mi

Pressure: 29.77 "Hg

Humidity: 94%

Dew Point: 52 °F

Location of BucharestLocation

Historic Weather in Bucharest — Graph

°F

Bucharest Temperature Yesterday

Maximum temperature yesterday: 66 °F (at 12:30 PM)
Minimum temperature yesterday: 45 °F (at 4:00 AM)
Average temperature yesterday: 57 °F

High & Low Weather Summary for the Past Weeks

 TemperatureHumidityPressure
High86 °F (Apr 18, 2:00 PM)100% (Apr 20, 10:00 AM)30.30 "Hg (Apr 20, 10:00 AM)
Low41 °F (Apr 21, 6:00 AM)25% (Apr 18, 3:00 PM)29.42 "Hg (Apr 24, 6:30 PM)
Average57 °F75%29.92 "Hg
* Reported Apr 18 1:00 PM — May 3 1:00 PM, Bucharest, Weather by CustomWeather, © 2016

Note: Actual official high and low records may vary slightly from our data, if they occured in-between our weather recording intervals... More about our weather records

Advertising

Bucharest Weather History for the Previous 24 Hours

Scroll right to see more
 ConditionsComfort  
Time TempWeatherWind HumidityBarometerVisibility
1:00 PM
Tue, May 3
54 °FSprinkles. Broken clouds.16 mph94%29.77 "Hg4 mi
12:30 PM54 °FLight rain. Partly sunny.16 mph94%29.80 "HgN/A
12:00 PM54 °FLight rain. Broken clouds.17 mph88%29.80 "HgN/A
11:30 AM54 °FPartly sunny.16 mph94%29.80 "HgN/A
11:00 AM52 °FPartly sunny.17 mph94%29.80 "HgN/A
10:30 AM52 °FBroken clouds.15 mph94%29.80 "HgN/A
10:00 AM52 °FScattered clouds.16 mph94%29.80 "HgN/A
9:30 AM52 °FPartly sunny.17 mph94%29.80 "HgN/A
9:00 AM52 °FLight rain. Partly sunny.15 mph94%29.80 "HgN/A
8:30 AM52 °FSprinkles. Partly sunny.16 mph94%29.80 "HgN/A
8:00 AM52 °FSprinkles. Partly sunny.12 mph94%29.83 "Hg5 mi
7:30 AM52 °FSprinkles. Partly sunny.12 mph94%29.83 "Hg4 mi
6:30 AM54 °FSprinkles. Partly cloudy.9 mph94%29.83 "Hg4 mi
6:00 AM54 °FSprinkles. Passing clouds.12 mph88%29.83 "HgN/A
5:30 AM54 °FPassing clouds.12 mph88%29.83 "HgN/A
4:30 AM55 °FPassing clouds.12 mph82%29.86 "HgN/A
4:00 AM55 °FPassing clouds.12 mph82%29.86 "HgN/A
3:30 AM55 °FPassing clouds.13 mph82%29.86 "HgN/A
3:00 AM55 °FPassing clouds.13 mph77%29.86 "HgN/A
2:00 AM55 °FPassing clouds.10 mph72%29.89 "HgN/A
1:30 AM55 °FPassing clouds.12 mph72%29.89 "HgN/A
1:00 AM55 °FPassing clouds.12 mph72%29.92 "HgN/A
12:00 AM55 °FClear.14 mph72%29.92 "Hg10 mi
11:30 PM
Mon, May 2
55 °FClear.16 mph72%29.92 "Hg10 mi
11:00 PM55 °FPassing clouds.15 mph72%29.95 "HgN/A
10:30 PM57 °FClear.16 mph67%29.95 "Hg10 mi
10:00 PM57 °FClear.15 mph72%29.95 "Hg10 mi
9:30 PM59 °FClear.16 mph63%29.95 "Hg10 mi
9:00 PM59 °FSunny.10 mph63%29.95 "Hg10 mi
8:30 PM61 °FSunny.12 mph55%29.95 "Hg10 mi
8:00 PM61 °FSunny.12 mph55%29.95 "Hg10 mi
7:30 PM61 °FSunny.15 mph52%29.95 "Hg10 mi
7:00 PM63 °FSunny.18 mph49%29.98 "Hg10 mi
6:30 PM63 °FSunny.17 mph56%29.98 "Hg10 mi
6:00 PM64 °FPassing clouds.16 mph52%29.98 "HgN/A
5:30 PM64 °FPartly sunny.12 mph56%29.98 "HgN/A
5:00 PM64 °FPassing clouds.15 mph52%30.01 "HgN/A
4:30 PM64 °FPartly sunny.15 mph56%30.01 "HgN/A
4:00 PM64 °FPartly sunny.15 mph52%30.01 "HgN/A
3:30 PM66 °FPartly sunny.13 mph52%30.01 "HgN/A
3:00 PM64 °FPartly sunny.12 mph60%30.01 "HgN/A
2:30 PM66 °FPartly sunny.13 mph56%30.04 "HgN/A
2:00 PM66 °FBroken clouds.16 mph52%30.04 "HgN/A
1:30 PM66 °FPartly sunny.14 mph56%30.04 "HgN/A
1:00 PM66 °FPartly sunny.13 mph56%30.04 "HgN/A
Weather by CustomWeather, © 2016

See weather overviewHow to use our weather pages